TimeCDT,TemperatureF,Dew PointF,Humidity,Sea Level PressureIn,VisibilityMPH,Wind Direction,Wind SpeedMPH,Gust SpeedMPH,PrecipitationIn,Events,Conditions,WindDirDegrees,DateUTC
12:54 AM,36.0,30.9,82,30.13,10.0,SSW,6.9,-,N/A,,Clear,200,2012-10-08 05:54:00
1:54 AM,35.1,30.9,85,30.12,10.0,SSW,6.9,-,N/A,,Clear,210,2012-10-08 06:54:00
2:54 AM,34.0,30.0,85,30.12,10.0,SSW,9.2,-,N/A,,Clear,210,2012-10-08 07:54:00
3:54 AM,32.0,28.9,88,30.09,10.0,SSW,6.9,-,N/A,,Clear,210,2012-10-08 08:54:00
4:54 AM,30.9,28.9,92,30.07,10.0,WSW,5.8,-,N/A,,Clear,240,2012-10-08 09:54:00
5:54 AM,30.0,28.0,92,30.07,10.0,SSW,6.9,-,N/A,,Clear,210,2012-10-08 10:54:00
6:54 AM,30.0,28.0,92,30.07,10.0,SSW,5.8,-,N/A,,Clear,210,2012-10-08 11:54:00
7:54 AM,30.0,28.0,92,30.08,10.0,SSW,5.8,-,N/A,,Clear,210,2012-10-08 12:54:00
8:54 AM,35.1,32.0,89,30.07,10.0,SW,4.6,-,N/A,,Clear,220,2012-10-08 13:54:00
9:54 AM,44.1,37.0,76,30.05,10.0,SW,9.2,-,N/A,,Clear,230,2012-10-08 14:54:00
10:54 AM,57.0,36.0,45,30.01,10.0,SW,11.5,-,N/A,,Clear,230,2012-10-08 15:54:00
11:54 AM,64.0,27.0,25,29.98,10.0,SW,18.4,-,N/A,,Clear,220,2012-10-08 16:54:00
12:54 PM,68.0,25.0,20,29.96,10.0,SSW,16.1,26.5,N/A,,Clear,200,2012-10-08 17:54:00
1:54 PM,70.0,26.1,19,29.92,10.0,SSW,18.4,23.0,N/A,,Clear,210,2012-10-08 18:54:00
2:54 PM,70.0,33.1,26,29.90,10.0,South,16.1,24.2,N/A,,Clear,190,2012-10-08 19:54:00
3:54 PM,70.0,34.0,27,29.87,10.0,South,15.0,23.0,N/A,,Clear,190,2012-10-08 20:54:00
4:54 PM,70.0,34.0,27,29.86,10.0,SSW,13.8,-,N/A,,Clear,200,2012-10-08 21:54:00
5:54 PM,66.9,35.1,31,29.86,10.0,South,10.4,-,N/A,,Clear,190,2012-10-08 22:54:00
6:54 PM,64.0,35.1,34,29.86,10.0,South,10.4,-,N/A,,Clear,190,2012-10-08 23:54:00
7:54 PM,55.9,36.0,47,29.87,10.0,SSE,8.1,-,N/A,,Clear,160,2012-10-09 00:54:00
8:54 PM,52.0,39.0,61,29.88,10.0,SSE,8.1,-,N/A,,Clear,160,2012-10-09 01:54:00
9:54 PM,50.0,37.9,63,29.88,10.0,SSE,8.1,-,N/A,,Clear,160,2012-10-09 02:54:00
10:54 PM,48.0,37.9,68,29.86,10.0,SSE,9.2,-,N/A,,Clear,160,2012-10-09 03:54:00
11:54 PM,46.0,37.0,71,29.84,10.0,SSE,6.9,-,N/A,,Clear,160,2012-10-09 04:54:00